RYR84JW LIRN-LZIB

Flight info

Callsign RYR84JW
Flight time 1h 32m
Altitude 36000
Route BEDPI DCT MOLUX DCT PALEZ/N0428F350 DCT PIS DCT PETOV DCT NIGSI DCT BEGLA DCT KUVEX
Aircraft B738/M-SDE1E2E3FGIJ1LRWY/SB1

Departure

Time 2026-05-06 13:59
Airport Naples International Airport (LIRN)

Arrival

Time 2026-05-06 15:32
Airport M. R. Štefánik Airport (LZIB)
Time Latitude Longitude Altitude Speed Heading
2026-05-06 13:29 40.87877 14.28343 295 ft 0 kts 187°
2026-05-06 13:50 40.87883 14.28344 295 ft 4 kts 187°
2026-05-06 13:50 40.87910 14.28349 293 ft 3 kts 187°
2026-05-06 13:51 40.87930 14.28354 293 ft 4 kts 220°
2026-05-06 13:51 40.87940 14.28380 296 ft 4 kts 276°
2026-05-06 13:51 40.87939 14.28400 291 ft 2 kts 277°
2026-05-06 13:54 40.87940 14.28387 290 ft 7 kts 277°
2026-05-06 13:54 40.87951 14.28263 292 ft 17 kts 277°
2026-05-06 13:54 40.87972 14.28141 299 ft 11 kts 313°
2026-05-06 13:54 40.88035 14.28170 295 ft 13 kts 56°
2026-05-06 13:55 40.88064 14.28299 291 ft 17 kts 97°
2026-05-06 13:55 40.88049 14.28461 286 ft 17 kts 97°
2026-05-06 13:55 40.88045 14.28604 288 ft 14 kts 62°
2026-05-06 13:55 40.88107 14.28714 281 ft 16 kts 52°
2026-05-06 13:56 40.88184 14.28847 279 ft 22 kts 53°
2026-05-06 13:56 40.88285 14.29022 273 ft 25 kts 52°
2026-05-06 13:56 40.88388 14.29200 265 ft 24 kts 52°
2026-05-06 13:56 40.88494 14.29383 258 ft 25 kts 53°
2026-05-06 13:57 40.88595 14.29559 251 ft 23 kts 53°
2026-05-06 13:57 40.88690 14.29722 246 ft 22 kts 53°
2026-05-06 13:57 40.88783 14.29884 242 ft 22 kts 52°
2026-05-06 13:57 40.88874 14.30041 237 ft 22 kts 52°
2026-05-06 13:58 40.88958 14.30182 232 ft 11 kts 35°
2026-05-06 13:58 40.89028 14.30147 234 ft 11 kts 328°
2026-05-06 13:58 40.89073 14.30077 237 ft 10 kts 263°
2026-05-06 13:58 40.89028 14.29976 241 ft 29 kts 238°
2026-05-06 13:59 40.88779 14.29448 254 ft 105 kts 238°
2026-05-06 13:59 40.88280 14.28393 329 ft 160 kts 235°
2026-05-06 13:59 40.87627 14.27148 1033 ft 168 kts 225°
2026-05-06 13:59 40.86617 14.26321 1816 ft 176 kts 196°
2026-05-06 14:00 40.85392 14.26301 2673 ft 180 kts 174°
2026-05-06 14:00 40.84137 14.26503 3528 ft 183 kts 175°
2026-05-06 14:00 40.82845 14.26708 4323 ft 189 kts 176°
2026-05-06 14:00 40.81524 14.26921 5111 ft 194 kts 176°
2026-05-06 14:01 40.80171 14.27140 5862 ft 197 kts 176°
2026-05-06 14:01 40.78770 14.27366 6350 ft 213 kts 176°
2026-05-06 14:01 40.77268 14.27877 6671 ft 234 kts 150°
2026-05-06 14:01 40.76183 14.29511 7262 ft 245 kts 115°
2026-05-06 14:02 40.75867 14.31720 7983 ft 251 kts 84°
2026-05-06 14:02 40.76450 14.33864 8769 ft 252 kts 53°
2026-05-06 14:02 40.77706 14.35456 9549 ft 253 kts 33°
2026-05-06 14:02 40.79168 14.36763 10135 ft 266 kts 31°
2026-05-06 14:03 40.80804 14.38153 10372 ft 293 kts 30°
2026-05-06 14:03 40.82604 14.39671 10585 ft 321 kts 31°
2026-05-06 14:03 40.84561 14.41320 10902 ft 343 kts 31°
2026-05-06 14:03 40.86603 14.43045 11556 ft 351 kts 30°
2026-05-06 14:04 40.88664 14.44792 12405 ft 353 kts 30°
2026-05-06 14:04 40.90746 14.46557 13206 ft 358 kts 31°
2026-05-06 14:04 40.92855 14.48347 13965 ft 362 kts 31°
2026-05-06 14:04 40.94992 14.50162 14647 ft 367 kts 31°
2026-05-06 14:05 40.97156 14.52001 15311 ft 372 kts 31°
2026-05-06 14:05 40.99348 14.53865 16015 ft 376 kts 31°
2026-05-06 14:05 41.01564 14.55752 16680 ft 381 kts 31°
2026-05-06 14:05 41.03813 14.57667 17336 ft 387 kts 31°
2026-05-06 14:06 41.06091 14.59609 17998 ft 392 kts 31°
2026-05-06 14:06 41.08384 14.61567 18715 ft 393 kts 31°
2026-05-06 14:06 41.10695 14.63541 19245 ft 398 kts 31°
2026-05-06 14:06 41.13043 14.65543 19703 ft 404 kts 30°
2026-05-06 14:07 41.15418 14.67575 20284 ft 408 kts 30°
2026-05-06 14:07 41.17810 14.69626 20849 ft 412 kts 30°
2026-05-06 14:07 41.20232 14.71703 21355 ft 417 kts 30°
2026-05-06 14:07 41.22680 14.73805 21926 ft 421 kts 30°
2026-05-06 14:08 41.25153 14.75927 22470 ft 425 kts 31°
2026-05-06 14:08 41.27648 14.78071 22994 ft 429 kts 30°
2026-05-06 14:08 41.30276 14.79970 23486 ft 431 kts 20°
2026-05-06 14:08 41.33104 14.81284 23929 ft 430 kts
2026-05-06 14:09 41.36000 14.82008 24430 ft 429 kts
2026-05-06 14:09 41.38956 14.82625 24906 ft 431 kts
2026-05-06 14:09 41.41931 14.83222 25363 ft 434 kts
2026-05-06 14:09 41.44923 14.83825 25833 ft 436 kts
2026-05-06 14:10 41.47935 14.84442 26255 ft 440 kts
2026-05-06 14:10 41.50968 14.85077 26673 ft 443 kts
2026-05-06 14:10 41.54024 14.85727 27095 ft 446 kts
2026-05-06 14:10 41.57094 14.86387 27510 ft 448 kts
2026-05-06 14:11 41.60182 14.87055 27901 ft 451 kts
2026-05-06 14:11 41.63289 14.87730 28289 ft 454 kts
2026-05-06 14:11 41.66417 14.88409 28631 ft 458 kts
2026-05-06 14:11 41.69577 14.89096 28940 ft 462 kts
2026-05-06 14:12 41.72761 14.89790 29309 ft 465 kts
2026-05-06 14:12 41.75957 14.90488 29716 ft 466 kts
2026-05-06 14:12 41.79167 14.91189 30016 ft 469 kts
2026-05-06 14:12 41.82402 14.91895 30287 ft 472 kts
2026-05-06 14:13 41.85642 14.92604 30652 ft 472 kts
2026-05-06 14:13 41.88830 14.93303 31063 ft 470 kts
2026-05-06 14:13 41.92047 14.94010 31556 ft 467 kts
2026-05-06 14:13 41.95241 14.94713 32059 ft 464 kts
2026-05-06 14:14 41.98418 14.95412 32490 ft 462 kts
2026-05-06 14:14 42.01585 14.96108 32896 ft 461 kts
2026-05-06 14:14 42.04744 14.96802 33313 ft 460 kts
2026-05-06 14:14 42.07911 14.97497 33581 ft 462 kts
2026-05-06 14:15 42.11085 14.98194 33910 ft 462 kts
2026-05-06 14:15 42.14253 14.98892 34278 ft 460 kts
2026-05-06 14:15 42.17404 14.99589 34623 ft 458 kts
2026-05-06 14:15 42.20554 15.00285 34895 ft 459 kts
2026-05-06 14:16 42.23705 15.00982 35158 ft 459 kts
2026-05-06 14:16 42.26863 15.01679 35362 ft 461 kts
2026-05-06 14:16 42.30040 15.02382 35583 ft 463 kts
2026-05-06 14:16 42.33212 15.03086 35891 ft 461 kts
2026-05-06 14:17 42.39599 15.04504 35928 ft 467 kts
2026-05-06 14:17 42.45975 15.05926 35909 ft 462 kts
2026-05-06 14:18 42.52294 15.07339 35929 ft 459 kts
2026-05-06 14:18 42.58558 15.08739 35933 ft 459 kts
2026-05-06 14:19 42.64855 15.10148 35951 ft 459 kts
2026-05-06 14:19 42.71159 15.11563 35942 ft 459 kts
2026-05-06 14:20 42.77466 15.12981 35942 ft 460 kts
2026-05-06 14:20 42.83780 15.14404 35953 ft 460 kts
2026-05-06 14:21 42.90109 15.15834 35946 ft 461 kts
2026-05-06 14:21 42.96449 15.17269 35946 ft 462 kts
2026-05-06 14:22 43.02794 15.18708 35963 ft 463 kts
2026-05-06 14:22 43.09153 15.20153 35952 ft 463 kts
2026-05-06 14:23 43.15517 15.21603 35947 ft 464 kts
2026-05-06 14:23 43.21885 15.23057 35973 ft 464 kts
2026-05-06 14:24 43.27176 15.24268 35963 ft 464 kts
2026-05-06 14:24 43.33545 15.25727 35964 ft 464 kts
2026-05-06 14:25 43.39902 15.27188 35976 ft 463 kts
2026-05-06 14:25 43.46252 15.28649 35963 ft 462 kts
2026-05-06 14:26 43.52583 15.30109 35966 ft 461 kts
2026-05-06 14:26 43.58909 15.31571 35983 ft 460 kts
2026-05-06 14:27 43.65227 15.33034 35971 ft 460 kts
2026-05-06 14:27 43.71543 15.34500 35969 ft 460 kts
2026-05-06 14:28 43.77808 15.35957 35984 ft 459 kts
2026-05-06 14:28 43.84110 15.37426 35979 ft 459 kts
2026-05-06 14:29 43.90417 15.38899 35980 ft 460 kts
2026-05-06 14:29 43.96730 15.40376 35999 ft 460 kts
2026-05-06 14:30 44.03046 15.41858 35991 ft 461 kts
2026-05-06 14:30 44.09369 15.43344 35992 ft 461 kts
2026-05-06 14:31 44.15700 15.44836 36005 ft 462 kts
2026-05-06 14:31 44.22049 15.46335 35981 ft 463 kts
2026-05-06 14:32 44.28387 15.47836 35985 ft 461 kts
2026-05-06 14:32 44.34704 15.49334 36010 ft 460 kts
2026-05-06 14:33 44.41019 15.50835 35976 ft 460 kts
2026-05-06 14:33 44.47316 15.52336 35982 ft 459 kts
2026-05-06 14:34 44.53608 15.53837 35993 ft 459 kts
2026-05-06 14:34 44.59908 15.55344 35979 ft 460 kts
2026-05-06 14:35 44.66222 15.56857 35970 ft 460 kts
2026-05-06 14:35 44.72544 15.58376 35977 ft 462 kts
2026-05-06 14:36 44.78885 15.59903 35968 ft 463 kts
2026-05-06 14:36 44.85196 15.61427 35962 ft 464 kts
2026-05-06 14:37 44.91569 15.62968 35953 ft 465 kts
2026-05-06 14:37 44.97950 15.64515 35946 ft 466 kts
2026-05-06 14:38 45.04339 15.66068 35945 ft 466 kts
2026-05-06 14:38 45.10736 15.67627 35933 ft 467 kts
2026-05-06 14:39 45.17135 15.69189 35927 ft 467 kts
2026-05-06 14:39 45.23537 15.70755 35931 ft 467 kts
2026-05-06 14:40 45.29936 15.72325 35927 ft 467 kts
2026-05-06 14:40 45.36332 15.73897 35919 ft 466 kts
2026-05-06 14:41 45.42671 15.75459 35927 ft 465 kts
2026-05-06 14:41 45.49030 15.77030 35934 ft 463 kts
2026-05-06 14:42 45.55373 15.78600 35921 ft 462 kts
2026-05-06 14:42 45.61697 15.80168 35935 ft 461 kts
2026-05-06 14:43 45.68007 15.81737 35924 ft 460 kts
2026-05-06 14:43 45.74316 15.83309 35918 ft 460 kts
2026-05-06 14:44 45.80615 15.84882 35921 ft 459 kts
2026-05-06 14:45 45.90071 15.87250 35919 ft 461 kts
2026-05-06 14:45 45.96395 15.88839 35918 ft 461 kts
2026-05-06 14:46 46.02726 15.90433 35917 ft 462 kts
2026-05-06 14:46 46.09060 15.92032 35929 ft 462 kts
2026-05-06 14:47 46.15404 15.93637 35916 ft 463 kts
2026-05-06 14:47 46.21752 15.95247 35911 ft 463 kts
2026-05-06 14:48 46.28057 15.96850 35926 ft 463 kts
2026-05-06 14:48 46.34421 15.98025 35909 ft 458 kts 358°
2026-05-06 14:49 46.40780 15.98321 35897 ft 456 kts 356°
2026-05-06 14:49 46.43947 15.98427 35566 ft 454 kts 356°
2026-05-06 14:49 46.47080 15.98551 35278 ft 447 kts 356°
2026-05-06 14:49 46.50179 15.98693 34891 ft 444 kts 356°
2026-05-06 14:50 46.53260 15.98849 34510 ft 441 kts 356°
2026-05-06 14:50 46.56318 15.99015 34138 ft 439 kts 356°
2026-05-06 14:50 46.59363 15.99184 33747 ft 436 kts 356°
2026-05-06 14:50 46.62386 15.99355 33337 ft 434 kts 356°
2026-05-06 14:51 46.65391 15.99525 32950 ft 431 kts 356°
2026-05-06 14:51 46.68376 15.99694 32579 ft 428 kts 356°
2026-05-06 14:51 46.71337 15.99862 32215 ft 424 kts 356°
2026-05-06 14:51 46.74275 16.00029 31856 ft 421 kts 356°
2026-05-06 14:52 46.77192 16.00194 31503 ft 418 kts 356°
2026-05-06 14:52 46.80090 16.00358 31142 ft 416 kts 356°
2026-05-06 14:52 46.82976 16.00521 30796 ft 413 kts 356°
2026-05-06 14:52 46.85839 16.00682 30440 ft 411 kts 356°
2026-05-06 14:53 46.88686 16.00844 30104 ft 408 kts 356°
2026-05-06 14:53 46.91518 16.01004 29724 ft 406 kts 356°
2026-05-06 14:53 46.94330 16.01164 29322 ft 403 kts 356°
2026-05-06 14:53 46.97115 16.01323 28965 ft 399 kts 357°
2026-05-06 14:54 46.99879 16.01480 28593 ft 396 kts 357°
2026-05-06 14:54 47.02622 16.01637 28230 ft 393 kts 357°
2026-05-06 14:54 47.05308 16.01789 27874 ft 390 kts 357°
2026-05-06 14:54 47.08013 16.01943 27511 ft 388 kts 357°
2026-05-06 14:55 47.10701 16.02097 27168 ft 385 kts 357°
2026-05-06 14:55 47.13368 16.02249 26814 ft 383 kts 357°
2026-05-06 14:55 47.16022 16.02401 26459 ft 380 kts 357°
2026-05-06 14:55 47.18657 16.02552 26116 ft 378 kts 357°
2026-05-06 14:56 47.21282 16.02702 25769 ft 376 kts 357°
2026-05-06 14:56 47.23893 16.02852 25430 ft 375 kts 357°
2026-05-06 14:56 47.26493 16.03001 25085 ft 373 kts 358°
2026-05-06 14:56 47.29085 16.03149 24743 ft 372 kts 358°
2026-05-06 14:57 47.31666 16.03298 24415 ft 371 kts 358°
2026-05-06 14:57 47.34244 16.03537 24053 ft 373 kts
2026-05-06 14:57 47.36678 16.04895 23706 ft 379 kts 32°
2026-05-06 14:57 47.38635 16.07430 23506 ft 373 kts 52°
2026-05-06 14:58 47.40103 16.10567 23196 ft 370 kts 58°
2026-05-06 14:58 47.41484 16.13770 22833 ft 369 kts 59°
2026-05-06 14:58 47.42839 16.16975 22464 ft 367 kts 59°
2026-05-06 14:58 47.44189 16.20169 22124 ft 366 kts 59°
2026-05-06 14:59 47.45540 16.23345 21801 ft 364 kts 58°
2026-05-06 14:59 47.46891 16.26501 21458 ft 363 kts 58°
2026-05-06 14:59 47.48242 16.29641 21131 ft 361 kts 58°
2026-05-06 14:59 47.49571 16.32726 20822 ft 360 kts 58°
2026-05-06 15:00 47.50916 16.35844 20469 ft 359 kts 58°
2026-05-06 15:00 47.52258 16.38955 20135 ft 358 kts 58°
2026-05-06 15:00 47.53596 16.42058 19811 ft 357 kts 58°
2026-05-06 15:00 47.54929 16.45154 19468 ft 356 kts 58°
2026-05-06 15:01 47.56257 16.48241 19143 ft 355 kts 58°
2026-05-06 15:01 47.57581 16.51323 18796 ft 355 kts 58°
2026-05-06 15:01 47.58904 16.54405 18464 ft 354 kts 58°
2026-05-06 15:01 47.60220 16.57475 18137 ft 353 kts 58°
2026-05-06 15:02 47.61536 16.60547 17752 ft 353 kts 58°
2026-05-06 15:02 47.62847 16.63611 17409 ft 351 kts 58°
2026-05-06 15:02 47.64150 16.66659 17073 ft 350 kts 58°
2026-05-06 15:02 47.65448 16.69701 16736 ft 348 kts 58°
2026-05-06 15:03 47.66737 16.72724 16408 ft 346 kts 58°
2026-05-06 15:03 47.68021 16.75739 16060 ft 345 kts 58°
2026-05-06 15:03 47.69299 16.78743 15753 ft 343 kts 58°
2026-05-06 15:03 47.70570 16.81732 15421 ft 342 kts 58°
2026-05-06 15:04 47.71836 16.84715 15104 ft 341 kts 58°
2026-05-06 15:04 47.73095 16.87686 14765 ft 339 kts 58°
2026-05-06 15:04 47.74352 16.90653 14448 ft 339 kts 58°
2026-05-06 15:04 47.75605 16.93615 14133 ft 338 kts 58°
2026-05-06 15:05 47.76854 16.96571 13808 ft 338 kts 58°
2026-05-06 15:05 47.78103 16.99528 13462 ft 338 kts 58°
2026-05-06 15:05 47.79349 17.02481 13119 ft 336 kts 58°
2026-05-06 15:05 47.80587 17.05419 12787 ft 335 kts 59°
2026-05-06 15:06 47.81818 17.08344 12465 ft 333 kts 59°
2026-05-06 15:06 47.83033 17.11262 12132 ft 331 kts 62°
2026-05-06 15:06 47.83977 17.14354 11821 ft 327 kts 71°
2026-05-06 15:06 47.84744 17.17524 11491 ft 325 kts 73°
2026-05-06 15:07 47.85473 17.20699 11173 ft 323 kts 73°
2026-05-06 15:07 47.86195 17.23860 10894 ft 321 kts 73°
2026-05-06 15:07 47.86898 17.26926 10704 ft 316 kts 73°
2026-05-06 15:07 47.87609 17.30008 10418 ft 314 kts 73°
2026-05-06 15:08 47.88320 17.33074 10148 ft 312 kts 73°
2026-05-06 15:08 47.89020 17.36094 10023 ft 305 kts 73°
2026-05-06 15:08 47.89711 17.39077 9739 ft 304 kts 73°
2026-05-06 15:08 47.90651 17.41892 9416 ft 306 kts 50°
2026-05-06 15:09 47.92310 17.43816 9134 ft 302 kts 22°
2026-05-06 15:09 47.94302 17.44646 8859 ft 296 kts
2026-05-06 15:09 47.96336 17.45087 8563 ft 295 kts
2026-05-06 15:09 47.98368 17.45510 8271 ft 294 kts
2026-05-06 15:10 48.00390 17.45933 7993 ft 293 kts
2026-05-06 15:10 48.02407 17.46354 7719 ft 292 kts
2026-05-06 15:10 48.04416 17.46773 7438 ft 291 kts
2026-05-06 15:10 48.06425 17.47192 7159 ft 291 kts
2026-05-06 15:11 48.08429 17.47611 6866 ft 291 kts
2026-05-06 15:11 48.10440 17.48032 6565 ft 292 kts
2026-05-06 15:11 48.12451 17.48453 6269 ft 292 kts
2026-05-06 15:11 48.14463 17.48875 5978 ft 292 kts
2026-05-06 15:12 48.16476 17.49298 5678 ft 292 kts
2026-05-06 15:12 48.18483 17.49719 5405 ft 291 kts
2026-05-06 15:12 48.20469 17.50137 5247 ft 285 kts
2026-05-06 15:12 48.22411 17.50545 5117 ft 278 kts
2026-05-06 15:13 48.24290 17.50901 4974 ft 266 kts 359°
2026-05-06 15:13 48.26018 17.50327 4803 ft 247 kts 326°
2026-05-06 15:13 48.27352 17.48886 4626 ft 228 kts 310°
2026-05-06 15:13 48.28424 17.47264 4386 ft 216 kts 307°
2026-05-06 15:14 48.29444 17.45658 4182 ft 212 kts 307°
2026-05-06 15:14 48.30404 17.43997 3990 ft 207 kts 293°
2026-05-06 15:14 48.30685 17.42024 3779 ft 188 kts 253°
2026-05-06 15:14 48.30168 17.40303 3610 ft 180 kts 226°
2026-05-06 15:15 48.29290 17.38977 3405 ft 179 kts 218°
2026-05-06 15:15 48.28397 17.37693 3212 ft 175 kts 219°
2026-05-06 15:15 48.27529 17.36440 3013 ft 171 kts 219°
2026-05-06 15:15 48.26691 17.35232 2799 ft 162 kts 218°
2026-05-06 15:16 48.25906 17.34100 2595 ft 151 kts 218°
2026-05-06 15:16 48.25187 17.33062 2426 ft 137 kts 219°
2026-05-06 15:16 48.24534 17.32124 2247 ft 127 kts 218°
2026-05-06 15:16 48.23903 17.31215 2069 ft 123 kts 216°
2026-05-06 15:17 48.23296 17.30341 1921 ft 121 kts 216°
2026-05-06 15:17 48.22879 17.29744 1809 ft 126 kts 217°
2026-05-06 15:17 48.22025 17.28512 1600 ft 130 kts 218°
2026-05-06 15:17 48.21591 17.27883 1472 ft 132 kts 218°
2026-05-06 15:18 48.20945 17.26953 1290 ft 129 kts 219°
2026-05-06 15:18 48.20302 17.26022 1119 ft 125 kts 213°
2026-05-06 15:18 48.19669 17.25148 952 ft 125 kts 217°
2026-05-06 15:18 48.18982 17.24361 878 ft 125 kts 214°
2026-05-06 15:19 48.18358 17.23353 1074 ft 136 kts 221°
2026-05-06 15:19 48.17652 17.22269 1488 ft 160 kts 219°
2026-05-06 15:19 48.16836 17.21071 2268 ft 161 kts 219°
2026-05-06 15:19 48.15971 17.19816 2779 ft 183 kts 219°
2026-05-06 15:20 48.15018 17.18445 2958 ft 199 kts 220°
2026-05-06 15:20 48.13955 17.16933 2996 ft 218 kts 217°
2026-05-06 15:20 48.12569 17.15909 2992 ft 226 kts 189°
2026-05-06 15:20 48.11032 17.16041 2986 ft 221 kts 165°
2026-05-06 15:21 48.09723 17.17199 2999 ft 223 kts 141°
2026-05-06 15:21 48.08902 17.19202 3006 ft 234 kts 114°
2026-05-06 15:21 48.08794 17.21671 3013 ft 247 kts 85°
2026-05-06 15:21 48.09319 17.24156 3007 ft 254 kts 74°
2026-05-06 15:22 48.10007 17.26605 2988 ft 259 kts 73°
2026-05-06 15:22 48.10732 17.29097 2993 ft 263 kts 72°
2026-05-06 15:22 48.11452 17.31581 2988 ft 264 kts 71°
2026-05-06 15:22 48.12176 17.34102 2994 ft 264 kts 71°
2026-05-06 15:23 48.12896 17.36632 3002 ft 265 kts 72°
2026-05-06 15:23 48.13632 17.39164 2987 ft 268 kts 65°
2026-05-06 15:23 48.14880 17.41262 3010 ft 274 kts 40°
2026-05-06 15:23 48.16475 17.42839 3012 ft 274 kts 32°
2026-05-06 15:24 48.18090 17.44269 2978 ft 264 kts 32°
2026-05-06 15:24 48.19630 17.45642 2978 ft 251 kts 32°
2026-05-06 15:24 48.21093 17.46969 2982 ft 244 kts 33°
2026-05-06 15:24 48.22542 17.48294 3006 ft 244 kts 34°
2026-05-06 15:25 48.24009 17.49596 2999 ft 247 kts 26°
2026-05-06 15:25 48.25648 17.49999 3002 ft 232 kts 346°
2026-05-06 15:25 48.27048 17.49113 2993 ft 211 kts 320°
2026-05-06 15:25 48.28128 17.47703 3010 ft 203 kts 308°
2026-05-06 15:26 48.29075 17.46151 3010 ft 198 kts 297°
2026-05-06 15:26 48.29572 17.44348 3000 ft 180 kts 276°
2026-05-06 15:26 48.29707 17.42538 2989 ft 171 kts 259°
2026-05-06 15:26 48.29528 17.40796 3013 ft 169 kts 248°
2026-05-06 15:27 48.29127 17.39142 3010 ft 168 kts 234°
2026-05-06 15:27 48.28427 17.37768 3010 ft 165 kts 220°
2026-05-06 15:27 48.27624 17.36577 2940 ft 161 kts 219°
2026-05-06 15:27 48.26846 17.35453 2831 ft 149 kts 218°
2026-05-06 15:28 48.26118 17.34405 2654 ft 143 kts 218°
2026-05-06 15:28 48.25440 17.33429 2484 ft 132 kts 218°
2026-05-06 15:28 48.24781 17.32482 2319 ft 132 kts 218°
2026-05-06 15:28 48.24126 17.31539 2132 ft 129 kts 219°
2026-05-06 15:29 48.23493 17.30625 1960 ft 124 kts 216°
2026-05-06 15:29 48.22868 17.29727 1808 ft 125 kts 216°
2026-05-06 15:29 48.22230 17.28808 1641 ft 130 kts 217°
2026-05-06 15:29 48.21585 17.27877 1478 ft 129 kts 218°
2026-05-06 15:30 48.20929 17.26933 1275 ft 131 kts 219°
2026-05-06 15:30 48.20296 17.25976 1125 ft 125 kts 215°
2026-05-06 15:30 48.19655 17.25104 829 ft 125 kts 212°
2026-05-06 15:30 48.19082 17.24237 759 ft 114 kts 216°
2026-05-06 15:31 48.18499 17.23404 656 ft 125 kts 214°
2026-05-06 15:31 48.17861 17.22502 466 ft 127 kts 218°
2026-05-06 15:31 48.17237 17.21607 428 ft 118 kts 217°
2026-05-06 15:32 48.16595 17.20686 424 ft 16 kts 224°
2026-05-06 15:32 48.16580 17.20565 419 ft 13 kts 310°
2026-05-06 15:32 48.16641 17.20470 420 ft 12 kts 313°
2026-05-06 15:32 48.16698 17.20380 424 ft 12 kts 314°
2026-05-06 15:33 48.16755 17.20295 430 ft 11 kts 315°
2026-05-06 15:33 48.16810 17.20213 423 ft 11 kts 315°
2026-05-06 15:33 48.16866 17.20150 429 ft 7 kts
2026-05-06 15:33 48.16908 17.20199 436 ft 8 kts 44°
2026-05-06 15:34 48.16944 17.20238 436 ft 5 kts 348°
2026-05-06 15:34 48.16971 17.20199 432 ft 5 kts 313°
2026-05-06 15:34 48.16983 17.20179 434 ft 0 kts 314°